{"data":{"norad_id":67897,"epoch":"2026-09-19T06:06:34.389216Z","epoch_age_seconds":170826,"freshness":"FRESH","line1":"1 67897U 26035U   26262.25456469  .00007865  00000+0  24569-3 0  9996","line2":"2 67897  97.2851 194.1462 0001266  85.4507 274.6880 15.33445910 33659","mean_motion":15.3344591,"eccentricity":0.0001266,"inclination_deg":97.2851,"raan_deg":194.1462,"arg_perigee_deg":85.4507,"mean_anomaly_deg":274.688,"bstar":0.00024569,"rev_number":3365,"period_min":93.906148929635,"perigee_km":464.67405739239,"apogee_km":466.40687652703,"semimajor_km":6843.6774669597,"source":"CELESTRAK","updated_at":"2026-09-20T09:00:43.699274Z"}}